This is the latest recevied weather packets stored in our database for station/object DH9SB-6. If no packets are shown the sender has not sent any weather packets the latest 10 day(s).
| Time | Temp. | Humidity | Pressure | Rain* | Wind** | Luminosity | Snow |
|---|---|---|---|---|---|---|---|
| 1778248086 | 21.11° C | 47% | - | 0 mm | - | - | - |
| 1778247509 | 21.11° C | 48% | - | 0 mm | - | - | - |
| 1778246886 | 20.56° C | 50% | - | 0 mm | - | - | - |
| 1778246261 | 20° C | 50% | - | 0 mm | - | - | - |
| 1778245685 | 19.44° C | 51% | - | 0 mm | - | - | - |
| 1778245062 | 18.89° C | 53% | - | 0 mm | - | - | - |
| 1778244485 | 18.89° C | 52% | - | 0 mm | - | - | - |
| 1778243862 | 18.89° C | 52% | - | 0 mm | - | - | - |
| 1778243286 | 18.89° C | 51% | - | 0 mm | - | - | - |
| 1778242667 | 19.44° C | 51% | - | 0 mm | - | - | - |
| 1778241749 | 19.44° C | 51% | - | 0 mm | - | - | - |
| 1778241174 | 19.44° C | 53% | - | 0 mm | - | - | - |
| 1778240548 | 18.89° C | 52% | - | 0 mm | - | - | - |
| 1778239973 | 18.89° C | 53% | - | 0 mm | - | - | - |
| 1778239349 | 18.89° C | 54% | - | 0 mm | - | - | - |
| 1778239063 | 18.33° C | 54% | - | 0 mm | - | - | - |
| 1778238149 | 18.89° C | 53% | - | 0 mm | - | - | - |
| 1778237574 | 18.33° C | 54% | - | 0 mm | - | - | - |
| 1778236949 | 18.89° C | 54% | - | 0 mm | - | - | - |
| 1778236374 | 18.33° C | 55% | - | 0 mm | - | - | - |
| 1778235748 | 17.78° C | 57% | - | 0 mm | - | - | - |
| 1778235461 | 17.78° C | 55% | - | 0 mm | - | - | - |
| 1778234888 | 17.78° C | 58% | - | 0 mm | - | - | - |
| 1778234262 | 17.78° C | 60% | - | 0 mm | - | - | - |
| 1778233686 | 17.78° C | 60% | - | 0 mm | - | - | - |
* Rain latest hour (hover to see other rain measurements)
** Current wind speed in m/s (hover to see current wind gust speed)